Regional Weather Roundup
Issued by NWS Wakefield, VA

Home | Current Version | Previous Version | Graphics & Text | Print | Product List | Glossary On
Versions: 1 2 3 4 5 6 7 8 9 10 11 12 13 14 15 16 17 18 19 20 21 22 23 24 25 26 27 28 29 30 31 32 33 34 35 36 37 38 39 40 41 42 43 44 45 46 47 48 49 50
000
ASUS41 KAKQ 020410
RWRAKQ

REGIONAL WEATHER ROUNDUP
NATIONAL WEATHER SERVICE WAKEFIELD VA
1100 PM EST SUN MAR 01 2015

Note: "fair" indicates few or no clouds below 12,000 feet with no
significant weather and/or obstructions to visibility. * = Denotes
station may not report precipitation (e.g., rain,snow,etc.),
thunder or fog.

VAZ042-051-052>054-056-020500-
NORTHERN VIRGINIA

CITY           SKY/WX    TMP DP  RH WIND       PRES   REMARKS
WASH NATIONAL  CLOUDY    34  30  85 SW5       30.24F FOG
DULLES         FOG       31  29  92 S5        30.21F VSB 1/2
FORT BELVOIR   CLOUDY    32  32 100 CALM      30.22F
QUANTICO       CLOUDY    33  30  88 CALM      30.25F
FREDERICKSBRG* CLOUDY    34  34 100 CALM      30.23F
STAFFORD*      CLOUDY    32  32 100 SW3       30.27F HAZE
WARRENTON      CLOUDY    33  33 100 S6        30.20F FOG
CULPEPER*      CLOUDY    34  34 100 SW3       30.20F FOG
MANASSAS*      CLOUDY    34  32  93 S5        30.22
LEESBURG*      CLOUDY    32  32 100 SE5       30.19F FOG
WINCHESTER     MOCLDY    32  28  86 CALM      30.16F FOG
FRONT ROYAL*   MOCLDY    30  28  93 CALM      30.14F
LURAY*         FAIR      36  36 100 CALM      30.13F
$$

VAZ048-049-060>072-079>083-020500-
CENTRAL AND SOUTH CENTRAL VIRGINIA

CITY           SKY/WX    TMP DP  RH WIND       PRES   REMARKS
RICHMOND       CLOUDY    33  30  88 SW6       30.27F FOG
CHESTERFIELD*  CLOUDY    34  21  60 CALM      30.28F
PETERSBURG*    CLOUDY    34  33  99 S5        30.28F FOG
HANOVER        CLOUDY    33  32  96 SW6       30.27F FOG
TAPPAHANNOCK*  CLOUDY    33  31  92 SW5       30.26F FOG
QUINTON*       CLOUDY    32  31  98 S3        30.26F
CHARLOTTSVILLE MOCLDY    32  30  92 S9        30.18F FOG
GORDONSVILLE*  CLOUDY    32  32  99 SW9       30.19F FOG
ORANGE*        CLOUDY    34  32  93 S8        30.21F FOG
LOUISA*        CLOUDY    34  32  93 SW7       30.22S FOG
BUMPASS*       CLOUDY    32  32  99 SW7       30.24S
FARMVILLE*     CLOUDY    35  35 100 SW3       30.30S FOG
CREWE*         CLOUDY    33  32  96 SW3       30.26S
FORT PICKETT*  CLOUDY    32  32  99 SW10      30.25F WCI  24
CHASE CITY*    CLOUDY    34  34 100 S3        30.27F
CLARKSVILLE*   FAIR      32  32 100 S5        30.27F
SOUTH HILL*    CLOUDY    32  31  98 S5        30.34F
LAWRENCEVILLE* CLOUDY    32  32 100 SW6       30.29F
EMPORIA*       CLOUDY    32  32 100 S3        30.32S FOG
$$

VAZ088>098-020500-
SOUTHEAST VIRGINIA

CITY           SKY/WX    TMP DP  RH WIND       PRES   REMARKS
NORFOLK        CLOUDY    33  30  88 W3        30.26F FOG
VIRGINIA BEACH CLOUDY    34  30  85 S9        30.23F
NORFOLK NAVAL  MOCLDY    36  31  82 SW7       30.27F FOG
WEST POINT*    CLOUDY    35  32  91 SW5       30.28F
SALUDA*        CLOUDY    32  31  96 CALM      30.26S
NEWPORT NEWS   PTCLDY    35  31  85 W7        30.28R
LANGLEY AFB    MOCLDY    33  31  94 W5        30.26S
FORT EUSTIS    PTCLDY    33  33 100 NW3       30.26R
WILLIAMSBURG*  MOCLDY    36  34  93 CALM      30.28F
HR EXEC AP*    MOCLDY    32  30  93 W5        30.29F
FRANKLIN*      CLOUDY    32  32  99 W6        30.32R
WAKEFIELD      CLOUDY    33  30  88 SW7       30.29R
$$

VAZ020-022-025-037-045-020500-
WEST CENTRAL AND SOUTHWEST VIRGINIA

CITY           SKY/WX    TMP DP  RH WIND       PRES   REMARKS
STAUNTON*      PTCLDY    40  33  74 SE5       30.16F
WAYNESBORO*    FAIR      35  32  88 CALM      30.15F
HOT SPRINGS VA HVY SNOW  40  40 100 W22G30    30.12F VSB<1/4
LYNCHBURG      CLOUDY    31  31 100 S6        30.25F FOG
DANVILLE       CLOUDY    35  33  92 SW7       30.28F FOG
SOUTH BOSTON*  MOCLDY    32  31  96 S3        30.27F
MARTINSVILLE   MOCLDY    37  37 100 SW3       30.28F FOG
ROANOKE        CLOUDY    35  29  78 CALM      30.25F
BLACKSBURG     CLOUDY    44  41  89 W7        30.25F
DUBLIN*        CLOUDY    43  42  98 SW8       30.25F
MARION*        FOG       43  42  95 W16       30.27F VSB 3/4
HILLSVILLE*    CLOUDY    45  43  92 CALM      30.25F
RICHLANDS*     FOG       42  41  95 W8        30.25F VSB 1/4
WISE*          FOG       43  43 100 SW12      30.26S VSB<1/4
ABINGDON*      FOG       42  42  99 CALM      30.28F VSB 1/4
$$

MDZ021>025-VAZ099-100-020500-
SOUTHERN MARYLAND AND THE DELMARVA PENINSULA

CITY           SKY/WX    TMP DP  RH WIND       PRES   REMARKS
PATUXENT RIVER CLOUDY    31  29  92 SW3       30.24F
BAY BRIDGE APT   N/A     32  32 100 CALM      30.23F
LEONARDTOWN    CLOUDY    32  30  93 S3        30.24F
DOVER          CLOUDY    32  32 100 CALM      30.20F
GEORGETOWN     FOG       32  31  96 SW3       30.22S VSB 3/4
EASTON         CLOUDY    33  33 100 SW3       30.26F
CAMBRIDGE      NOT AVBL
SALISBURY      CLOUDY    35  32  88 W5        30.25R FOG
OCEAN CITY     CLOUDY    32  31  96 W3        30.24R FOG
WALLOPS ISLAND CLOUDY    32  32 100 NW5       30.25R
ACCOMACK*      CLOUDY    32  32 100 W3        30.25R
$$

NCZ012>017-030>032-020500-
NORTH CENTRAL AND EASTERN NORTH CAROLINA

CITY           SKY/WX    TMP DP  RH WIND       PRES   REMARKS
ROANOKE RAPIDS CLOUDY    32  32 100 SW6       30.31S
RALEIGH        CLOUDY    35  33  92 W3        30.33R FOG
ELIZABETH CITY CLOUDY    37  35  92 W5        30.29F
AHOSKIE*       CLOUDY    32  32  99 CALM      30.30F
EDENTON*       CLOUDY    36  35  98 SW5       30.29R FOG
CURRITUCK*     MOCLDY    35  34  96 CALM      30.28F
KILL DEVIL HLS LGT RAIN  38  38 100 SW3       30.27F
MANTEO         CLOUDY    37  37 100 S5        30.29F
CAPE HATTERAS  LGT RAIN  41  41 100 NW9       30.32S
TARBORO*       CLOUDY    35  34  96 W3        30.33F
GOLDSBORO      CLOUDY    38  38 100 W3        30.30F
WASHINGTON     CLOUDY    38  37  97 W3        30.32S
GREENVILLE     CLOUDY    36  36 100 CALM      30.32S FOG
NEW BERN       CLOUDY    41  39  93 W3        30.33R
WILMINGTON     CLOUDY    42  41  96 W3        30.34F FOG
$$

VAZ048-020500-
ELSEWHERE

CITY           SKY/WX    TMP DP  RH WIND       PRES   REMARKS
HARRISBURG PA  CLOUDY    26  23  88 NW3       30.19F FOG
BALTIMORE      CLOUDY    32  30  92 W5        30.21F FOG
ANNAPOLIS      CLOUDY    31  29  92 MISG      30.22F
ANDREWS AFB    CLOUDY    32  32 100 CALM      30.21F FOG
PHILADELPHIA   CLOUDY    31  29  92 SW6       30.21F FOG
HENDERSON NC   CLOUDY    33  32  98 CALM      30.29F FOG
GREENSBORO     FOG       36  35  96 W7        30.28S VSB 3/4
ROCKY MOUNT    CLOUDY    36  35  96 CALM      30.31F
$$

VAZ100-020500-
MARINE

STATION/POSITION TIME  TEMP    WIND        PRES    WAVE   SWELL
                       AIR SEA DIR/SP/G            HT/PER HT/PER
                 (UTC) (F)     (DEG/KT/KT) (MB)    (FT/S) (FT/S)
BRANDYWINE LGT   0300   30 30     CALM     1023.5F
CAPE MAY NJ      0300   31 32     CALM     1023.0F
LEWES DE         0400   31 30     CALM     1023.4S
15NM E FENWICK I 0400   32 34              1023.5F   3/ 6
OCEAN-CITY-INLET 0300             CALM       N/A
WACHAPREAGUE VA  0400   33 33  290/  2/  4 1024.3R
THOMAS POINT MD  0400   31 31     CALM     1024.5
COVE POINT MD    0400   30        CALM     1024.2R
SOLOMONS ISLAND  0300      32                N/A
BISHOPS HEAD MD  0300   31 31     CALM     1024.0R
CAMBRIDGE MD     0300   32 32     CALM     1024.5R
LEWISETTA VA     0400   32 33              1024.0F
RAPPAHANNOCK LGT 0400          230/  1/  1   N/A
STINGRAY PT      0400   32     260/  2/  2   N/A
YORK RVR RNG VA  0300   32     240/  2/  3 1024.3S
YORKTOWN VA      0300   33 33  280/  4/  5 1025.0S
DOMINION TERM VA 0400   33     260/  6/  7 1024.8R
KIPTOPEKE VA     0400          250/  6/  7   N/A
CHES BAY BRIDGE  0300          180/  2/  3   N/A
CAPE HENRY VA    0400   32     180/  3/  3 1022.4F
CHESAPEAKE LGHT  0300   32     230/  4/  4 1025.9F
WILLOUBY STN VA  0400          250/  8/  8   N/A
S CRANEY ISL VA  0300          190/  7/  9 1024.6F
CAPE HENRY BUOY  0400      35                N/A     3/ 6
1ST LANDING BUOY 0400   32                 1023.7F
OFFSHORE WE BUOY 0400      36                N/A     3/ 6   3/ 6
64NM E OF VA BCH 0400   43 56  300/ 10/ 12 1024.5F   4/ 7   3/ 7
DUCK PIER NC     0300   37 34  230/  4/  6 1025.0F
44100 DUCK FRF   0300      36                N/A     4/ 6
44056 DUCK FRF   0400                        N/A     3/ 6
OREGON INLET NC  0300   38 41  290/  6/  7 1026.4F
HATTERAS NC      0300          300/  5/  6   N/A
CAPE LOOKOUT NC  0300   48     310/  6/  7 1027.1F
$$


USA.gov is the U.S. government's official web portal to all federal, state and local government web resources and services.